Regional Weather Roundup
Issued by NWS

Home | Current Version | Previous Version | Text Only | Print | Product List | Glossary Off
Versions: 1 2 3 4 5 6 7 8 9 10 11 12 13 14 15 16 17 18 19 20 21 22 23 24 25 26 27 28 29 30 31 32 33 34 35 36 37 38 39 40 41 42 43 44 45 46 47 48 49 50

000
ASUS45 KPSR 190600
RWRAZ

PRELIMINARY ARIZONA REGIONAL HOURLY WEATHER ROUNDUP
NATIONAL WEATHER SERVICE PHOENIX AZ
1100 PM MST THU SEP 18 2014

NOTE: FAIR INDICATES FEW OR NO CLOUDS BELOW 12,000 FEET WITH NO
SIGNIFICANT WEATHER AND/OR OBSTRUCTIONS TO VISIBILITY.

AZZ001>003-036-190700-
NORTHWEST ARIZONA

CITY           SKY/WX    TMP DP  RH WIND       PRES   REMARKS
KINGMAN        MOCLDY    77  56  48 S9        29.88R
6HR MIN TEMP:  76; 6HR MAX TEMP:  89;

$$

AZZ004>008-015-016-018-190700-
NORTH CENTRAL ARIZONA

CITY           SKY/WX    TMP DP  RH WIND       PRES   REMARKS
GRAND CANYON   PTCLDY    54  50  86 CALM      30.13R
6HR MIN TEMP:  54; 6HR MAX TEMP:  77;

PRESCOTT       PTCLDY    68  58  70 SE7       30.03S
6HR MIN TEMP:  68; 6HR MAX TEMP:  80;

FLAGSTAFF      CLEAR     57  55  93 SW3       30.17S
6HR MIN TEMP:  57; 6HR MAX TEMP:  64; 6HR PCP: TRACE;

PAGE           CLOUDY    81  51  35 SW9       29.89S
6HR MIN TEMP:  79; 6HR MAX TEMP:  90;

$$

AZZ009>014-017-190700-
NORTHEAST ARIZONA

CITY           SKY/WX    TMP DP  RH WIND       PRES   REMARKS
WINSLOW        NOT AVBL
SAINT JOHNS    PTCLDY    63  56  78 SE3       30.06R
6HR MIN TEMP:  63; 6HR MAX TEMP:  77; 6HR PCP: TRACE;

WINDOW ROCK    CLEAR     55  47  74 CALM      30.13R
6HR MIN TEMP:  53; 6HR MAX TEMP:  76;

$$

AZZ023-190700-
GREATER PHOENIX AREA

CITY           SKY/WX    TMP DP  RH WIND       PRES   REMARKS
PHOENIX        MOCLDY    88  65  46 S9        29.75R
6HR MIN TEMP:  88; 6HR MAX TEMP:  95;

DEER VALLEY    PTCLDY    85  64  49 SE5       29.78R
6HR MIN TEMP:  85; 6HR MAX TEMP:  92;

SCOTTSDALE     PTCLDY    85  66  53 CALM      29.80R
6HR MIN TEMP:  85; 6HR MAX TEMP:  93;

MESA-GATEWAY   PTCLDY    86  68  54 SE8       29.80R
$$

AZZ027-028-190700-
SOUTHWEST MARICOPA COUNTY AND PINAL COUNTY

CITY           SKY/WX    TMP DP  RH WIND       PRES   REMARKS
CASA GRANDE    MOCLDY    82  66  57 CALM      29.80S
6HR MIN TEMP:  82; 6HR MAX TEMP:  91;

GILA BEND      CLEAR     86  70  58 S6        29.75S
$$

AZZ503-504-507>509-190700-
SOUTHEAST ARIZONA

CITY           SKY/WX    TMP DP  RH WIND       PRES   REMARKS
TUCSON         MOCLDY    76  68  76 VRB3      29.90S
6HR MIN TEMP:  76; 6HR MAX TEMP:  83;

NOGALES        CLOUDY    69  67  93 S3        29.98S
6HR MIN TEMP:  69; 6HR MAX TEMP:  71; 6HR PCP:  0.04;

SAFFORD        MOCLDY    71  67  87 E5        29.92S
6HR MIN TEMP:  71; 6HR MAX TEMP:  78;

$$

AZZ020-021-025-026-031-190700-
SOUTHWEST ARIZONA

CITY           SKY/WX    TMP DP  RH WIND       PRES   REMARKS
YUMA           CLEAR     88  47  24 W7        29.71S
6HR MIN TEMP:  88; 6HR MAX TEMP: 105;

$$

CAZ031-033-041-043-047-048-061-190700-
SOUTHERN CALIFORNIA

CITY           SKY/WX    TMP DP  RH WIND       PRES   REMARKS
DOWNTOWN L.A.  CLEAR     71  62  73 CALM      29.84S
6HR MIN TEMP:  70; 6HR MAX TEMP:  77;

L.A. AIRPORT   PTCLDY    69  63  81 W10       29.86R
6HR MIN TEMP:  69; 6HR MAX TEMP:  73;

SAN DIEGO      MOCLDY    73  65  75 W7        29.88S
6HR MIN TEMP:  73; 6HR MAX TEMP:  76;

BURBANK        CLEAR     70  61  73 SE6       29.85F
6HR MIN TEMP:  70; 6HR MAX TEMP:  79;

ONTARIO        PTCLDY    69  63  81 W10       29.88R
6HR MIN TEMP:  69; 6HR MAX TEMP:  84;

RIVERSIDE      CLEAR     69  63  81 W3        29.88R
6HR MIN TEMP:  69; 6HR MAX TEMP:  83;

PALM SPRINGS   CLEAR     86  58  38 NW20      29.70R
6HR MIN TEMP:  86; 6HR MAX TEMP: 101;

EL CENTRO NAS  CLEAR     85  58  39 W23       29.69R
6HR MIN TEMP:  84; 6HR MAX TEMP: 102;

IMPERIAL       CLEAR     83  59  44 W18       29.68R
6HR MIN TEMP:  83; 6HR MAX TEMP: 101;

BLYTHE         CLEAR     87  53  31 SE9       29.67R
6HR MIN TEMP:  87; 6HR MAX TEMP: 103;

$$

NVZ020-UTZ003-190700-
SOUTHERN NEVADA-UTAH

CITY           SKY/WX    TMP DP  RH WIND       PRES   REMARKS
LAS VEGAS      NOT AVBL
SALT LAKE CITY PTCLDY    68  52  56 N8        29.90R HAZE
6HR MIN TEMP:  68; 6HR MAX TEMP:  89;

$$

NMZ009-TXZ055-190700-
NEW MEXICO-WEST TEXAS

CITY           SKY/WX    TMP DP  RH WIND       PRES   REMARKS
ALBUQUERQUE    MOCLDY    67  58  72 S3        30.09R
6HR MIN TEMP:  67; 6HR MAX TEMP:  78;

EL PASO        CLOUDY    68  65  90 CALM      29.98S
6HR MIN TEMP:  67; 6HR MAX TEMP:  70; 6HR PCP:  0.30;

$$


........................KEY........................
SKY/WX - SKY CONDITION/WEATHER
TMP    - TEMPERATURE IN FAHRENHEIT
DP     - DEW POINT IN FAHRENHEIT
RH     - RELATIVE HUMIDITY IN PERCENT
WIND   - DIRECTION AND SPEED IN MILES PER HOUR (MPH)
VRB    - VARIABLE WIND DIRECTION
PRES   - MEAN SEA LEVEL PRESSURE IN INCHES OF MERCURY
         F - FALLING PRESSURE   R - RISING PRESSURE
         S - STEADY PRESSURE
VSB    - VISIBILITY IN MILES
HX     - HEAT INDEX IN FAHRENHEIT
WCI    - WIND CHILL INDEX IN FAHRENHEIT
TC     - TEMPERATURE IN CELSIUS WHICH IS ALSO KNOWN AS
         TEMPERATURE IN CENTIGRADE
AFB    - AIR FORCE BASE
         LUKE AFB IS LUKE AIR FORCE BASE
         DAVIS-MONTHAN IS DAVIS-MONTHAN AIR FORCE BASE
NAS    - NAVAL AIR STATION
         EL CENTRO NAS IS EL CENTRO NAVAL AIR STATION
N/A    - NOT AVAILABLE



USA.gov is the U.S. government's official web portal to all federal, state and local government web resources and services.